SCP
0 0 0 0 0 0 0 0 0 0 0 0 0 0 0 0 0 0 0 0 0 0 0 0 0 0 0 0 0 0 0 0 0 0 0 0 0 0 0 0 0 0 0 0
0 0 0 0 0 0 0 0 0 0 0 0 0 0 0 0 0 0 0 0 0 0 0 0 0 0 0 0 0 0 0 0 0 0 0 0 0 0 0 0 0 0 0 0
0 0 0 0 0 0 0 0 0 0 0 0 0 0 0 0 0 0 0 0 0 0 0 0 0 0 0 0 0 0 0 0 0 0 0 0 0 0 0 0 0 0 0 0
0 0 0 0 0 0 0 0 0 0 0 0 0 0 0 0 0 0 0 0 0 0 0 0 0 0 0 0 0 0 0 0 0 0 0 0 0 0 0 0 0 0 0 0
0 0 0 0 0 0 0 0 0 0 0 0 0 0 0 0 0 0 0 0 0 0 0 0 0 0 0 0 0 0 0 0 0 0 0 0 0 0 0 0 0 0 0 0
0 0 0 0 0 0 0 0 0 0 0 0 0 0 0 0 0 0 0 0 0 0 0 0 0 0 0 0 0 0 0 0 0 0 0 0 0 0 0 0 0 0 0 0
0 0 0 0 0 0 0 0 0 0 0 0 0 0 0 0 0 0 0 0 0 0 0 0 0 0 0 0 0 0 0 0 0 0 0 0 0 0 0 0 0 0 0 0
0 0 0 0 0 0 0 0 0 0 0 0 0 0 0 0 0 0 0 0 0 0 0 0 0 0 0 0 0 0 0 0 0 0 0 0 0 0 0 0 0 0 0 0
0 0 0 0 0 0 0 0 0 0 0 0 0 0 0 0 0 0 0 0 0 0 0 0 0 0 0 0 0 0 0 0 0 0 0 0 0 0 0 0 0 0 0 0
0 0 0 0 0 0 0 0 0 0 0 0 0 0 0 0 0 0 0 0 0 0 0 0 0 0 0 0 0 0 0 0 0 0 0 0 0 0 0 0 0 0 0 0
0 0 0 0 0 0 0 0 0 0 0 0 0 0 0 0 0 0 0 0 0 0 0 0 0 0 0 0 0 0 0 0 0 0 0 0 0 0 0 0 0 0 0 0
0 0 0 0 0 0 0 0 0 0 0 0 0 0 0 0 0 0 0 0 0 0 0 0 0 0 0 0 0 0 0 0 0 0 0 0 0 0 0 0 0 0 0 0
0 0 0 0 0 0 0 0 0 0 0 0 0 0 0 0 0 0 0 0 0 0 0 0 0 0 0 0 0 0 0 0 0 0 0 0 0 0 0 0 0 0 0 0
0 0 0 0 0 0 0 0 0 0 0 0 0 0 0 0 0 0 0 0 0 0 0 0 0 0 0 0 0 0 0 0 0 0 0 0 0 0 0 0 0 0 0 0
0 0 0 0 0 0 0 0 0 0 0 0 0 0 0 0 0 0 0 0 0 0 0 0 0 0 0 0 0 0 0 0 0 0 0 0 0 0 0 0 0 0 0 0
0 0 0 0 0 0 0 0 0 0 0 0 0 0 0 0 0 0 0 0 0 0 0 0 0 0 0 0 0 0 0 0 0 0 0 0 0 0 0 0 0 0 0 0
0 0 0 0 0 0 0 0 0 0 0 0 0 0 0 0 0 0 0 0 0 0 0 0 0 0 0 0 0 0 0 0 0 0 0 0 0 0 0 0 0 0 0 0
0 0 0 0 0 0 0 0 0 0 0 0 0 0 0 0 0 0 0 0 0 0 0 0 0 0 0 0 0 0 0 0 0 0 0 0 0 0 0 0 0 0 0 0
0 0 0 0 0 0 0 0 0 0 0 0 0 0 0 0 0 0 0 0 0 0 0 0 0 0 0 0 0 0 0 0 0 0 0 0 0 0 0 0 0 0 0 0
0 0 0 0 0 0 0 0 0 0 0 0 0 0 0 0 0 0 0 0 0 0 0 0 0 0 0 0 0 0 0 0 0 0 0 0 0 0 0 0 0 0 0 0
0 0 0 0 0 0 0 0 0 0 0 0 0 0 0 0 0 0 0 0 0 0 0 0 0 0 0 0 0 0 0 0 0 0 0 0 0 0 0 0 0 0 0 0
0 0 0 0 0 0 0 0 0 0 0 0 0 0 0 0 0 0 0 0 0 0 0 0 0 0 0 0 0 0 0 0 0 0 0 0 0 0 0 0 0 0 0 0
0 0 0 0 0 0 0 0 0 0 0 0 0 0 0 0 0 0 0 0 0 0 0 0 0 0 0 0 0 0 0 0 0 0 0 0 0 0 0 0 0 0 0 0
0 0 0 0 0 0 0 0 0 0 0 0 0 0 0 0 0 0 0 0 0 0 0 0 0 0 0 0 0 0 0 0 0 0 0 0 0 0 0 0 0 0 0 0
0 0 0 0 0 0 0 0 0 0 0 0 0 0 0 0 0 0 0 0 0 0 0 0 0 0 0 0 0 0 0 0 0 0 0 0 0 0 0 0 0 0 0 0
0 0 0 0 0 0 0 0 0 0 0 0 0 0 0 0 0 0 0 0 0 0 0 0 0 0 0 0 0 0 0 0 0 0 0 0 0 0 0 0 0 0 0 0
Wind_Speed
3 6 6 6 5 6 6 6 4 6 3 1 3 9 7 5 2 2 5 5 6 7 7 7 7 8 8 9 11 12 12 12 10 9 10 10 10 9 8 7 11 11 11 12
5 6 5 4 3 4 4 5 3 5 4 1 3 7 8 6 4 4 4 4 5 6 7 7 7 8 8 9 10 10 11 11 10 9 8 8 9 8 8 8 9 10 11 12
7 4 4 3 6 7 2 4 5 2 5 3 3 6 9 8 6 4 3 1 5 7 7 7 7 8 8 8 9 10 10 11 10 10 7 9 7 7 7 8 7 9 11 11
6 2 3 3 6 6 4 5 4 4 3 4 7 3 8 9 7 6 2 4 6 6 6 6 7 8 8 8 7 8 9 10 9 9 9 11 10 9 10 8 8 10 11 11
5 4 5 5 4 4 4 3 4 6 4 3 6 4 5 8 7 5 4 6 6 6 6 7 8 8 7 7 7 7 8 8 9 9 9 9 9 8 8 9 10 9 9 9
4 2 3 3 3 3 6 7 7 3 2 5 4 6 4 3 4 6 6 5 6 6 7 7 8 7 7 7 6 7 8 8 8 9 9 10 11 11 12 11 10 9 7 7
6 5 2 2 5 2 4 6 2 2 3 3 1 0 5 6 9 7 4 4 5 7 7 7 8 7 7 7 7 7 8 9 9 9 9 9 10 10 10 10 10 11 9 8
2 3 3 4 4 4 4 4 3 4 5 5 3 3 6 8 6 2 1 4 6 7 7 7 7 7 7 7 7 8 8 9 9 9 9 9 9 7 7 9 10 9 8 8
6 2 4 2 3 4 5 4 1 3 6 6 2 6 5 5 4 1 4 6 7 7 7 7 7 7 7 7 7 8 9 9 9 9 9 9 9 9 9 9 9 7 8 10
5 4 4 4 3 1 2 3 3 3 4 6 6 4 4 5 2 4 5 6 6 6 7 7 7 7 6 6 6 7 8 8 8 9 9 12 10 9 9 9 9 9 10 10
4 5 2 3 1 1 0 1 2 3 3 3 6 1 5 6 4 3 4 5 6 7 7 7 7 7 6 7 7 7 7 8 9 9 9 10 9 9 9 9 9 9 9 10
4 3 3 4 4 2 2 3 3 3 4 3 5 0 5 5 3 3 4 6 7 8 7 7 7 7 7 7 7 8 8 8 9 9 10 10 10 10 10 10 10 10 11 10
6 4 3 1 0 0 2 2 1 2 2 3 4 1 6 5 2 5 6 7 7 8 8 7 7 7 7 8 8 8 8 9 9 10 11 11 11 11 11 11 11 11 11 11
3 4 4 4 2 1 2 3 3 2 3 4 4 2 2 4 5 6 6 8 7 7 7 7 7 7 7 8 8 9 9 9 11 11 11 12 12 12 12 11 12 12 11 11
2 4 4 5 1 2 4 5 4 6 5 5 5 5 3 5 5 6 6 7 8 7 8 8 7 7 8 8 8 9 9 10 11 11 12 12 11 11 11 11 11 11 11 13
1 3 4 4 3 2 5 7 6 6 5 6 6 3 5 4 5 6 7 7 7 7 7 8 8 8 8 8 9 9 10 10 10 11 12 12 11 10 10 11 10 10 10 11
0 3 3 5 2 4 7 6 8 4 5 3 2 1 4 4 6 5 7 7 6 6 6 7 7 7 8 8 8 9 10 11 11 11 11 10 10 11 10 12 11 10 10 10
2 2 1 4 6 6 2 3 1 3 3 2 1 2 3 4 6 9 8 6 5 5 5 6 6 7 7 7 7 8 9 11 11 10 10 10 11 11 10 10 10 10 9 9
3 2 1 1 5 9 2 2 2 2 4 4 3 2 4 5 3 5 5 4 4 4 4 5 5 6 7 7 8 9 11 11 10 10 11 12 11 11 11 10 10 9 8 8
1 2 1 2 3 7 1 5 4 3 4 5 5 3 3 4 2 1 2 3 4 4 4 5 6 6 7 8 8 10 11 11 11 11 12 12 11 11 11 10 9 8 8 9
3 3 3 4 6 9 4 6 5 3 4 6 6 5 4 2 3 4 4 4 4 4 5 5 6 6 7 8 9 9 10 10 11 12 12 11 10 10 10 8 8 8 9 10
6 5 6 4 5 10 7 7 6 5 6 6 6 6 5 5 6 6 5 4 4 4 5 6 6 7 7 8 8 9 9 10 11 12 12 11 10 10 10 8 8 8 8 9
6 5 5 7 7 2 6 5 4 7 7 6 6 7 6 5 6 5 4 3 4 4 5 5 6 8 8 8 8 8 9 10 11 12 12 10 10 8 8 8 7 7 7 7
5 3 1 5 4 6 6 6 5 6 8 8 8 7 6 6 6 5 3 3 3 4 4 5 6 8 9 8 8 7 8 9 11 12 11 9 9 9 8 7 7 6 7 7
4 6 4 6 2 5 5 7 7 9 10 10 9 7 6 7 6 4 3 3 3 3 4 5 6 7 8 8 8 8 8 9 10 10 10 9 9 8 7 8 8 9 6 11
6 8 8 6 7 8 7 10 10 10 9 9 9 7 7 6 6 4 3 2 2 3 4 5 6 7 8 8 8 8 8 9 10 10 9 7 7 7 7 6 7 14 16 19
Wind_Direction
18 52 38 11 359 328 334 334 56 100 105 272 154 139 148 155 171 47 49 34 38 31 25 40 36 33 23 18 14 2 357 355 354 353 344 342 339 336 334 343 345 341 339 337
106 60 9 330 328 307 319 322 66 123 121 244 162 159 151 153 118 53 19 13 21 34 16 22 26 31 22 18 13 0 356 351 353 350 338 336 330 328 333 340 334 335 337 337
78 55 323 333 16 339 318 22 2 16 135 212 215 195 158 147 132 159 220 87 40 30 14 10 20 28 22 19 12 359 352 348 349 346 339 337 326 329 337 334 331 336 338 335
80 43 322 2 39 346 12 37 333 296 227 214 178 238 158 156 173 190 183 68 45 33 15 13 25 27 22 18 11 359 348 346 347 346 341 339 339 337 334 331 328 334 333 332
82 23 1 28 21 335 326 324 278 272 253 257 193 239 141 151 189 174 95 56 39 32 20 22 31 28 20 15 8 355 344 344 345 345 341 338 333 330 327 327 330 332 327 329
111 105 39 353 288 248 286 270 230 247 243 257 209 188 139 182 148 101 61 37 27 27 24 26 28 23 14 12 5 351 344 342 343 343 340 337 333 333 330 332 333 330 326 329
150 131 108 318 306 213 312 325 328 278 227 216 75 154 102 82 70 70 43 21 28 31 26 22 19 12 9 5 359 350 345 340 342 341 339 335 333 331 329 332 330 328 329 332
335 131 65 28 18 331 326 351 20 312 305 311 191 108 113 105 103 118 50 41 38 34 29 24 17 12 7 1 357 350 344 340 340 340 337 331 331 328 325 327 324 324 327 325
356 51 136 76 10 339 343 37 39 282 279 278 127 95 128 139 166 125 30 37 35 34 30 22 12 11 7 2 357 349 343 339 338 338 335 328 331 327 324 322 320 322 324 325
330 303 136 132 195 166 7 339 315 295 322 307 296 124 165 167 124 38 21 30 30 34 30 18 11 8 6 1 352 346 341 336 335 338 335 334 327 324 323 321 322 323 323 323
333 304 190 183 227 69 223 232 313 283 246 270 296 21 91 106 77 30 16 35 37 39 31 16 11 6 1 357 349 343 340 338 338 336 330 327 323 323 323 321 321 322 320 322
22 315 294 73 54 22 20 15 348 316 311 297 287 148 123 119 113 61 36 42 46 45 32 19 10 359 356 351 345 342 341 340 337 333 329 326 325 325 324 322 322 321 319 319
348 302 283 258 23 267 175 124 329 320 302 270 270 287 154 151 92 56 47 48 45 37 24 14 4 355 351 346 343 342 341 338 335 333 330 327 326 325 323 321 321 319 317 316
321 289 275 297 328 34 278 195 198 243 238 265 268 26 147 93 45 36 45 55 44 31 18 7 359 350 346 344 342 341 338 338 336 334 329 325 322 319 317 318 319 318 318 319
299 288 293 291 264 190 258 268 248 227 245 259 290 352 46 67 38 34 51 53 36 20 8 3 354 344 342 341 339 337 334 336 332 326 321 315 312 313 315 318 319 321 323 323
260 291 302 285 142 202 251 241 239 246 249 263 291 329 89 51 36 30 57 50 31 12 2 356 348 343 340 337 335 333 331 328 323 316 310 310 313 318 320 320 322 323 321 319
230 308 314 291 239 259 271 217 193 208 212 237 265 81 58 27 21 35 68 54 29 10 358 349 342 338 332 331 331 330 326 321 315 309 310 316 321 322 322 325 327 323 321 321
326 292 289 301 327 277 245 17 91 203 232 197 203 58 62 44 54 73 70 55 26 8 355 343 336 329 324 326 330 326 321 315 311 314 322 327 325 323 324 326 326 324 321 320
349 322 308 313 294 274 177 185 161 187 267 175 164 116 69 42 72 86 58 55 39 18 360 342 333 326 328 334 336 328 319 314 319 330 332 330 328 329 330 331 329 326 324 322
318 302 262 196 255 263 226 134 101 86 259 137 127 114 73 43 348 125 82 53 44 22 0 347 337 334 336 335 330 322 317 324 334 335 332 328 329 330 329 332 331 332 332 332
194 194 206 220 242 266 137 130 124 164 237 135 124 115 99 105 136 116 94 63 42 15 357 355 344 337 334 327 321 318 321 332 333 331 326 327 330 329 332 334 334 336 337 335
194 199 212 205 237 255 146 148 189 192 123 123 115 109 109 105 103 96 82 66 38 12 1 357 343 332 327 321 320 322 328 329 331 329 327 329 331 336 343 338 337 337 337 336
215 207 209 205 219 150 158 168 137 127 131 121 116 114 118 117 110 102 86 62 38 19 359 347 337 327 324 319 323 327 327 332 333 331 330 331 334 336 339 340 339 340 339 339
209 117 218 271 231 172 160 120 128 122 117 111 115 117 120 121 118 115 101 64 33 8 349 342 335 326 318 318 327 326 328 335 333 331 331 335 338 338 340 342 342 343 340 343
230 156 215 249 161 133 170 152 136 113 112 112 112 114 119 124 125 122 108 70 24 349 338 332 320 312 313 322 327 329 336 336 332 329 331 336 339 335 339 344 346 348 342 354
211 184 190 225 186 173 186 159 138 134 135 132 128 123 120 125 129 122 108 80 359 327 318 317 317 319 318 323 327 331 338 337 333 334 335 336 337 338 339 336 341 352 357 358